CMA27S ZUUU-PANC

Flight info

Callsign CMA27S
Flight time N/A
Altitude 33100
Route UBRAB9W UBRAB B213 WHA R343 PK W116 JTN G327 LAMEN/N0486F350 A593 SADLI Y590 BEDAR Y591 BESMU Y14 SAMON Y142 GTC Y512 OATIS R580 OMOTO/N0476F370 R580 HAMND NEELL7
Aircraft B77L/H-SDE1E2E3FGHIJ2J3J4J5M1RWXY/LB1D1

Departure

Time 2026-05-01 12:32
Airport Chengdu Shuangliu International Airport (ZUUU)

Arrival

Time N/A
Airport Ted Stevens Anchorage International Airport (PANC)
Time Latitude Longitude Altitude Speed Heading
2026-05-01 12:20 30.55783 103.95019 1651 ft 0 kts 160°
2026-05-01 12:25 30.55788 103.95017 1651 ft 2 kts 158°
2026-05-01 12:25 30.55803 103.95009 1651 ft 2 kts 156°
2026-05-01 12:26 30.55818 103.95001 1651 ft 2 kts 148°
2026-05-01 12:26 30.55835 103.94971 1651 ft 2 kts 75°
2026-05-01 12:26 30.55832 103.94962 1651 ft 1 kts 69°
2026-05-01 12:28 30.55847 103.95002 1651 ft 16 kts 67°
2026-05-01 12:28 30.55990 103.95211 1651 ft 18 kts 352°
2026-05-01 12:29 30.56093 103.95122 1651 ft 19 kts 319°
2026-05-01 12:29 30.56194 103.95033 1651 ft 19 kts 324°
2026-05-01 12:29 30.56379 103.94780 1651 ft 26 kts 294°
2026-05-01 12:30 30.56427 103.94468 1651 ft 15 kts 216°
2026-05-01 12:30 30.56291 103.94397 1651 ft 24 kts 203°
2026-05-01 12:30 30.56262 103.94274 1652 ft 17 kts 291°
2026-05-01 12:31 30.56306 103.94146 1652 ft 17 kts 291°
2026-05-01 12:31 30.56351 103.94028 1651 ft 9 kts 313°
2026-05-01 12:31 30.56381 103.94025 1652 ft 4 kts 16°
2026-05-01 12:31 30.56601 103.94123 1654 ft 78 kts 22°
2026-05-01 12:32 30.57405 103.94494 1650 ft 169 kts 22°
2026-05-01 12:32 30.59893 103.95642 3411 ft 186 kts 24°
2026-05-01 12:32 30.61174 103.96253 3998 ft 215 kts 22°
2026-05-01 12:33 30.62662 103.96944 4354 ft 240 kts 22°
2026-05-01 12:33 30.64230 103.97672 4993 ft 250 kts 22°
2026-05-01 12:33 30.65866 103.98433 5739 ft 256 kts 23°
2026-05-01 12:33 30.67528 103.99210 6559 ft 257 kts 25°
2026-05-01 12:34 30.68983 104.00418 7150 ft 263 kts 51°
2026-05-01 12:34 30.69946 104.02237 7822 ft 267 kts 60°
2026-05-01 12:34 30.70855 104.04152 8554 ft 272 kts 60°
2026-05-01 12:34 30.71779 104.06097 9326 ft 277 kts 60°
2026-05-01 12:35 30.72709 104.08051 10013 ft 282 kts 60°
2026-05-01 12:35 30.73686 104.10102 10378 ft 301 kts 60°
2026-05-01 12:35 30.74749 104.12327 10532 ft 327 kts 60°
2026-05-01 12:35 30.75935 104.14680 10678 ft 347 kts 52°
2026-05-01 12:36 30.77822 104.16543 10862 ft 367 kts 26°
2026-05-01 12:36 30.80227 104.17588 11249 ft 379 kts 17°
2026-05-01 12:36 30.82785 104.18539 11773 ft 391 kts 17°
2026-05-01 12:36 30.85403 104.19510 12423 ft 398 kts 17°
2026-05-01 12:37 30.88068 104.20514 13139 ft 404 kts 17°
2026-05-01 12:37 30.90774 104.21548 13776 ft 411 kts 17°
2026-05-01 12:37 30.93516 104.22607 14333 ft 418 kts 17°
2026-05-01 12:37 30.96295 104.23684 14962 ft 421 kts 17°
2026-05-01 12:38 30.98911 104.25123 15385 ft 428 kts 36°
2026-05-01 12:38 31.00983 104.27630 15870 ft 436 kts 57°
2026-05-01 12:38 31.02305 104.30832 16484 ft 438 kts 73°
2026-05-01 12:38 31.02907 104.34279 17043 ft 438 kts 89°
2026-05-01 12:39 31.02964 104.37863 17498 ft 443 kts 93°
2026-05-01 12:39 31.02896 104.41497 17998 ft 449 kts 94°
2026-05-01 12:39 31.02799 104.45116 18510 ft 453 kts 94°
2026-05-01 12:39 31.02710 104.48808 19024 ft 457 kts 94°
2026-05-01 12:40 31.02642 104.52529 19507 ft 461 kts 93°
2026-05-01 12:40 31.02592 104.56290 19950 ft 467 kts 92°
2026-05-01 12:40 31.02554 104.60107 20406 ft 472 kts 92°
2026-05-01 12:40 31.02522 104.63914 20884 ft 475 kts 92°
2026-05-01 12:41 31.02490 104.67785 21367 ft 479 kts 91°
2026-05-01 12:41 31.02456 104.71681 21830 ft 483 kts 91°
2026-05-01 12:41 31.02420 104.75618 22275 ft 487 kts 91°
2026-05-01 12:41 31.02381 104.79578 22723 ft 491 kts 91°
2026-05-01 12:42 31.02340 104.83593 23180 ft 495 kts 91°
2026-05-01 12:42 31.02298 104.87631 23572 ft 499 kts 91°
2026-05-01 12:42 31.02254 104.91657 23940 ft 502 kts 91°
2026-05-01 12:42 31.02154 104.95737 24283 ft 503 kts 96°
2026-05-01 12:43 31.01398 104.99714 24542 ft 504 kts 114°
2026-05-01 12:43 30.99917 105.03398 24840 ft 503 kts 119°
2026-05-01 12:43 30.98344 105.07065 25176 ft 507 kts 119°
2026-05-01 12:43 30.96800 105.10711 25560 ft 510 kts 118°
2026-05-01 12:44 30.95263 105.14445 25942 ft 512 kts 118°
2026-05-01 12:44 30.93746 105.18221 26299 ft 516 kts 117°
2026-05-01 12:44 30.90719 105.25872 27013 ft 522 kts 117°
2026-05-01 12:45 30.87667 105.33566 27687 ft 528 kts 118°
2026-05-01 12:45 30.86120 105.37474 28008 ft 529 kts 116°
2026-05-01 12:45 30.85069 105.41619 28141 ft 541 kts 100°
2026-05-01 12:46 30.84980 105.46015 28378 ft 548 kts 83°
2026-05-01 12:46 30.85816 105.50288 28666 ft 547 kts 73°
2026-05-01 12:46 30.86853 105.54573 28918 ft 551 kts 74°
2026-05-01 12:46 30.87869 105.58889 29183 ft 555 kts 75°
2026-05-01 12:47 30.88852 105.63251 29457 ft 557 kts 75°
2026-05-01 12:47 30.89803 105.67646 29828 ft 558 kts 76°
2026-05-01 12:47 30.90721 105.71986 30199 ft 557 kts 76°
2026-05-01 12:47 30.91638 105.76366 30602 ft 556 kts 76°
2026-05-01 12:48 30.92556 105.80740 31024 ft 554 kts 76°
2026-05-01 12:48 30.93475 105.85105 31435 ft 553 kts 75°
2026-05-01 12:48 30.94397 105.89471 31834 ft 552 kts 75°
2026-05-01 12:48 30.95288 105.93762 32196 ft 550 kts 77°
2026-05-01 12:49 30.95832 105.98208 32505 ft 551 kts 87°
2026-05-01 12:49 30.95846 106.02634 32746 ft 551 kts 94°
2026-05-01 12:49 30.94503 106.11365 32798 ft 546 kts 110°
2026-05-01 12:50 30.92305 106.19844 32800 ft 546 kts 108°
2026-05-01 12:50 30.90297 106.28348 32798 ft 546 kts 108°
2026-05-01 12:51 30.88059 106.36783 32787 ft 541 kts 117°
2026-05-01 12:51 30.84173 106.44119 32807 ft 532 kts 134°
2026-05-01 12:52 30.81668 106.47245 32806 ft 526 kts 143°
2026-05-01 12:52 30.73549 106.55772 32788 ft 527 kts 142°
2026-05-01 12:53 30.65512 106.64546 32777 ft 528 kts 142°
2026-05-01 12:54 30.60160 106.70398 32792 ft 528 kts 142°
2026-05-01 12:54 30.52107 106.79066 32771 ft 527 kts 142°
2026-05-01 12:55 30.44047 106.87713 32777 ft 527 kts 142°
2026-05-01 12:56 30.38658 106.93494 32768 ft 527 kts 142°
2026-05-01 12:56 30.33300 106.99206 32770 ft 526 kts 143°
2026-05-01 12:57 30.27801 107.04857 32777 ft 526 kts 143°
2026-05-01 12:57 30.19614 107.13230 32771 ft 526 kts 143°
2026-05-01 12:58 30.14137 107.18855 32764 ft 526 kts 143°
2026-05-01 12:59 30.06238 107.27687 32761 ft 527 kts 140°
2026-05-01 12:59 29.98991 107.37214 32762 ft 536 kts 124°
2026-05-01 13:00 29.95939 107.45087 32767 ft 542 kts 108°
2026-05-01 13:00 29.94914 107.49278 32766 ft 542 kts 107°
2026-05-01 13:01 29.91787 107.61756 32769 ft 539 kts 108°
2026-05-01 13:01 29.90785 107.70330 32770 ft 544 kts 88°
2026-05-01 13:02 29.91135 107.74664 32785 ft 544 kts 79°
2026-05-01 13:07 30.14149 108.64997 32852 ft 540 kts 70°
2026-05-01 13:08 30.16622 108.73164 32845 ft 540 kts 70°
2026-05-01 13:08 30.19429 108.82736 32845 ft 540 kts 71°
2026-05-01 13:09 30.21408 108.89606 32866 ft 540 kts 71°
2026-05-01 13:09 30.23697 108.97882 32866 ft 540 kts 73°
2026-05-01 13:10 30.25698 109.06226 32868 ft 540 kts 74°
2026-05-01 13:10 30.27715 109.14617 32862 ft 540 kts 73°
2026-05-01 13:11 30.29773 109.22961 32863 ft 540 kts 73°
2026-05-01 13:11 30.31813 109.31339 32864 ft 540 kts 74°
2026-05-01 13:12 30.33813 109.39675 32857 ft 540 kts 74°
2026-05-01 13:12 30.35828 109.48082 32857 ft 540 kts 74°
2026-05-01 13:13 30.37828 109.56415 32877 ft 540 kts 74°
2026-05-01 13:13 30.39570 109.64866 32874 ft 539 kts 81°
2026-05-01 13:14 30.40778 109.73436 32871 ft 539 kts 81°
2026-05-01 13:14 30.42001 109.82003 32866 ft 539 kts 81°
2026-05-01 13:15 30.43242 109.90525 32878 ft 538 kts 80°
2026-05-01 13:15 30.44499 109.99108 32865 ft 538 kts 81°
2026-05-01 13:16 30.45734 110.07610 32879 ft 537 kts 81°
2026-05-01 13:16 30.46966 110.16154 32882 ft 537 kts 81°
2026-05-01 13:17 30.49411 110.33215 32868 ft 537 kts 81°
2026-05-01 13:18 30.51233 110.46048 32886 ft 537 kts 81°
2026-05-01 13:18 30.52433 110.54542 32869 ft 537 kts 81°
2026-05-01 13:19 30.53637 110.63107 32874 ft 538 kts 81°
2026-05-01 13:20 30.55433 110.75978 32888 ft 538 kts 81°
2026-05-01 13:20 30.56622 110.84540 32870 ft 538 kts 82°
2026-05-01 13:21 30.58400 110.97431 32865 ft 540 kts 82°
2026-05-01 13:21 30.59571 111.05970 32873 ft 539 kts 82°
2026-05-01 13:22 30.60743 111.14566 32858 ft 539 kts 82°
2026-05-01 13:22 30.61913 111.23198 32857 ft 541 kts 82°
2026-05-01 13:23 30.63072 111.31800 32852 ft 542 kts 82°
2026-05-01 13:23 30.64226 111.40456 32856 ft 542 kts 82°
2026-05-01 13:24 30.65322 111.49126 32851 ft 542 kts 86°
2026-05-01 13:25 30.66006 111.62224 32855 ft 541 kts 88°
2026-05-01 13:25 30.66469 111.70899 32860 ft 540 kts 88°
2026-05-01 13:26 30.66902 111.79641 32860 ft 540 kts 88°
2026-05-01 13:26 30.67316 111.88300 32856 ft 540 kts 88°
2026-05-01 13:27 30.67736 111.97011 32860 ft 540 kts 88°
2026-05-01 13:27 30.68600 112.10084 32857 ft 541 kts 86°
2026-05-01 13:28 30.69529 112.23175 32862 ft 542 kts 86°
2026-05-01 13:29 30.70686 112.40639 32862 ft 542 kts 87°
2026-05-01 13:31 30.72374 112.66800 32860 ft 542 kts 86°
2026-05-01 13:32 30.73742 112.88613 32863 ft 541 kts 87°
2026-05-01 13:33 30.75074 113.10424 32858 ft 541 kts 87°
2026-05-01 13:34 30.75738 113.27899 32858 ft 540 kts 90°
2026-05-01 13:35 30.76002 113.40972 32860 ft 540 kts 89°
2026-05-01 13:36 30.76327 113.54043 32855 ft 540 kts 89°
2026-05-01 13:36 30.76645 113.67154 32855 ft 540 kts 89°
2026-05-01 13:37 30.76845 113.75830 32853 ft 540 kts 89°
2026-05-01 13:37 30.77040 113.84581 32853 ft 541 kts 89°
2026-05-01 13:38 30.77323 113.97699 32855 ft 541 kts 89°
2026-05-01 13:39 30.77572 114.06425 32854 ft 541 kts 88°
2026-05-01 13:39 30.78037 114.15151 32857 ft 541 kts 84°
2026-05-01 13:40 30.79441 114.23708 32865 ft 541 kts 74°
2026-05-01 13:40 30.81969 114.31969 32853 ft 540 kts 67°
2026-05-01 13:41 30.84691 114.40119 32857 ft 540 kts 68°
2026-05-01 13:41 30.87305 114.48275 32862 ft 539 kts 69°
2026-05-01 13:42 30.89944 114.56450 32864 ft 539 kts 68°
2026-05-01 13:42 30.92591 114.64617 32869 ft 538 kts 68°
2026-05-01 13:43 30.95222 114.72775 32868 ft 538 kts 68°
2026-05-01 13:43 30.97837 114.80912 32873 ft 538 kts 68°
2026-05-01 13:44 31.00456 114.89082 32876 ft 538 kts 68°
2026-05-01 13:44 31.03079 114.97267 32877 ft 539 kts 68°
2026-05-01 13:45 31.05708 115.05417 32883 ft 539 kts 68°
2026-05-01 13:45 31.08358 115.13653 32876 ft 540 kts 68°
2026-05-01 13:46 31.10976 115.21818 32896 ft 540 kts 68°
2026-05-01 13:46 31.13560 115.30065 32886 ft 540 kts 69°
2026-05-01 13:47 31.16203 115.38297 32899 ft 540 kts 68°
2026-05-01 13:47 31.18861 115.46469 32902 ft 541 kts 68°
2026-05-01 13:48 31.21508 115.54667 32914 ft 541 kts 68°
2026-05-01 13:48 31.24145 115.62890 32900 ft 541 kts 68°
2026-05-01 13:49 31.26787 115.71152 32905 ft 541 kts 68°
2026-05-01 13:49 31.29409 115.79363 32904 ft 541 kts 68°
2026-05-01 13:50 31.32046 115.87617 32911 ft 541 kts 68°
2026-05-01 13:50 31.34716 115.95863 32900 ft 541 kts 68°
2026-05-01 13:51 31.37394 116.04048 32909 ft 541 kts 67°
2026-05-01 13:51 31.40081 116.12290 32893 ft 541 kts 68°
2026-05-01 13:52 31.42739 116.20488 32901 ft 541 kts 68°
2026-05-01 13:52 31.45406 116.28748 32896 ft 541 kts 68°
2026-05-01 13:53 31.48057 116.36973 32894 ft 541 kts 68°
2026-05-01 13:53 31.52039 116.49366 32899 ft 540 kts 68°
2026-05-01 13:54 31.54676 116.57599 32898 ft 540 kts 68°
2026-05-01 13:54 31.57310 116.65842 32900 ft 540 kts 68°
2026-05-01 13:55 31.59921 116.74037 32904 ft 540 kts 68°
2026-05-01 13:55 31.62545 116.82293 32904 ft 539 kts 68°
2026-05-01 13:56 31.65160 116.90544 32908 ft 539 kts 68°
2026-05-01 13:56 31.67772 116.98805 32916 ft 539 kts 68°
2026-05-01 13:57 31.69930 117.05683 32920 ft 539 kts 68°
2026-05-01 13:57 31.72909 117.15327 32917 ft 539 kts 69°
2026-05-01 13:58 31.75442 117.23563 32914 ft 539 kts 70°
2026-05-01 13:58 31.76949 117.32171 32910 ft 540 kts 84°
2026-05-01 13:59 31.76915 117.40985 32914 ft 540 kts 95°
2026-05-01 13:59 31.76336 117.48305 32918 ft 541 kts 96°
2026-05-01 14:00 31.75532 117.58571 32919 ft 541 kts 95°
2026-05-01 14:00 31.75005 117.65914 32912 ft 541 kts 95°
2026-05-01 14:01 31.74389 117.74708 32921 ft 541 kts 95°
2026-05-01 14:01 31.73763 117.83525 32928 ft 541 kts 95°
2026-05-01 14:02 31.73125 117.92346 32931 ft 541 kts 95°
2026-05-01 14:02 31.72480 118.01167 32922 ft 542 kts 95°
2026-05-01 14:03 31.71835 118.09940 32938 ft 542 kts 95°
2026-05-01 14:03 31.71204 118.18792 32939 ft 542 kts 95°
2026-05-01 14:04 31.70597 118.27592 32938 ft 543 kts 95°
2026-05-01 14:04 31.69980 118.36433 32938 ft 543 kts 95°
2026-05-01 14:05 31.69352 118.45276 32941 ft 544 kts 95°
2026-05-01 14:05 31.68717 118.54087 32951 ft 544 kts 95°
2026-05-01 14:06 31.68073 118.62949 32956 ft 543 kts 95°
2026-05-01 14:06 31.67425 118.71799 32970 ft 543 kts 95°
2026-05-01 14:07 31.66775 118.80578 32975 ft 543 kts 95°
2026-05-01 14:08 31.65786 118.93801 32964 ft 542 kts 95°
2026-05-01 14:08 31.65115 119.02603 32963 ft 541 kts 95°
2026-05-01 14:09 31.64590 119.11431 32976 ft 541 kts 92°
2026-05-01 14:09 31.64237 119.20233 32958 ft 541 kts 92°
2026-05-01 14:10 31.63836 119.29023 32969 ft 541 kts 92°
2026-05-01 14:10 31.63420 119.37861 32969 ft 541 kts 92°
2026-05-01 14:11 31.63002 119.46692 32969 ft 541 kts 92°
2026-05-01 14:11 31.62363 119.59891 32972 ft 541 kts 92°
2026-05-01 14:12 31.61931 119.68719 32977 ft 541 kts 92°
2026-05-01 14:12 31.61522 119.77490 32981 ft 540 kts 92°
2026-05-01 14:13 31.61119 119.86288 32987 ft 540 kts 92°
2026-05-01 14:13 31.60705 119.95106 32990 ft 540 kts 92°
2026-05-01 14:14 31.60283 120.03898 32990 ft 540 kts 92°
2026-05-01 14:14 31.59858 120.12635 32997 ft 540 kts 92°
2026-05-01 14:15 31.59424 120.21437 32997 ft 540 kts 92°
2026-05-01 14:15 31.58789 120.30231 32999 ft 540 kts 99°
2026-05-01 14:16 31.57010 120.38729 33003 ft 540 kts 110°
2026-05-01 14:16 31.54481 120.47018 33006 ft 540 kts 111°
2026-05-01 14:17 31.51946 120.55303 33008 ft 539 kts 110°
2026-05-01 14:17 31.49459 120.63590 33014 ft 539 kts 110°
2026-05-01 14:18 31.46997 120.71842 33015 ft 539 kts 110°
2026-05-01 14:18 31.44930 120.78749 33018 ft 539 kts 110°
2026-05-01 14:19 31.42032 120.88390 33020 ft 538 kts 110°
2026-05-01 14:19 31.39540 120.96651 33028 ft 538 kts 110°
2026-05-01 14:20 31.35788 121.09058 33041 ft 538 kts 110°
2026-05-01 14:21 31.33253 121.17262 33040 ft 538 kts 111°
2026-05-01 14:21 31.30486 121.25351 33033 ft 533 kts 123°
2026-05-01 14:22 31.25296 121.31304 33062 ft 522 kts 155°
2026-05-01 14:22 31.22055 121.33048 33050 ft 516 kts 166°
2026-05-01 14:22 31.18635 121.33989 33046 ft 505 kts 179°
2026-05-01 14:22 31.15161 121.34517 33028 ft 507 kts 169°
2026-05-01 14:23 31.11881 121.36153 33048 ft 523 kts 150°
2026-05-01 14:23 31.09106 121.38990 33053 ft 534 kts 131°
2026-05-01 14:23 31.07184 121.42701 33050 ft 538 kts 112°
2026-05-01 14:23 31.06303 121.46881 33047 ft 538 kts 93°
2026-05-01 14:24 31.06479 121.51232 33059 ft 535 kts 79°
2026-05-01 14:24 31.07212 121.55493 33050 ft 534 kts 76°
2026-05-01 14:24 31.08148 121.64099 33040 ft 538 kts 89°
2026-05-01 14:25 31.07469 121.72761 33058 ft 539 kts 99°
2026-05-01 14:25 31.06124 121.81353 33047 ft 539 kts 100°
2026-05-01 14:26 31.04210 121.94282 33053 ft 538 kts 98°
2026-05-01 14:27 31.03042 122.02913 33060 ft 538 kts 98°
2026-05-01 14:27 31.01873 122.11487 33068 ft 538 kts 98°
2026-05-01 14:28 31.00140 122.24384 33080 ft 537 kts 96°
2026-05-01 14:28 30.99916 122.33075 33071 ft 536 kts 87°
2026-05-01 14:29 31.00016 122.41742 33080 ft 537 kts 89°
2026-05-01 14:30 31.00003 122.59183 33083 ft 537 kts 89°
2026-05-01 14:31 31.00003 122.72216 33088 ft 537 kts 89°
2026-05-01 14:31 31.00011 122.80950 33084 ft 537 kts 89°
2026-05-01 14:32 31.00011 122.89614 33086 ft 537 kts 89°
2026-05-01 14:32 31.00651 122.98199 33082 ft 532 kts 72°
2026-05-01 14:33 31.03514 123.06081 33095 ft 524 kts 53°
2026-05-01 14:33 31.07788 123.12953 33095 ft 522 kts 49°
2026-05-01 14:34 31.12076 123.19733 33092 ft 523 kts 50°
2026-05-01 14:34 31.16327 123.26634 33084 ft 523 kts 50°
2026-05-01 14:35 31.20544 123.33565 33090 ft 523 kts 50°
2026-05-01 14:35 31.24766 123.40510 33089 ft 523 kts 50°
2026-05-01 14:36 31.28958 123.47406 33089 ft 524 kts 50°
2026-05-01 14:36 31.33177 123.54357 33086 ft 524 kts 51°
2026-05-01 14:37 31.37418 123.61301 33084 ft 524 kts 50°
2026-05-01 14:37 31.41679 123.68250 33087 ft 524 kts 50°
2026-05-01 14:38 31.45924 123.75196 33089 ft 525 kts 50°
2026-05-01 14:38 31.50167 123.82161 33087 ft 525 kts 50°
2026-05-01 14:39 31.54394 123.89112 33086 ft 525 kts 50°
2026-05-01 14:39 31.58579 123.96172 33069 ft 528 kts 55°
2026-05-01 14:40 31.61787 124.03931 33093 ft 534 kts 66°
2026-05-01 14:40 31.63884 124.12298 33094 ft 536 kts 73°
2026-05-01 14:41 31.65694 124.20808 33092 ft 537 kts 73°
2026-05-01 14:41 31.67526 124.29283 33076 ft 537 kts 73°
2026-05-01 14:42 31.69396 124.37751 33092 ft 537 kts 73°
2026-05-01 14:42 31.71283 124.46262 33085 ft 537 kts 73°
2026-05-01 14:43 31.73157 124.54766 33083 ft 538 kts 73°
2026-05-01 14:43 31.75026 124.63287 33085 ft 538 kts 73°
2026-05-01 14:44 31.76877 124.71760 33084 ft 538 kts 73°
2026-05-01 14:44 31.79669 124.84594 33084 ft 539 kts 73°
2026-05-01 14:45 31.82107 124.97489 33074 ft 542 kts 83°
2026-05-01 14:46 31.82055 125.06329 33084 ft 544 kts 96°
2026-05-01 14:46 31.79895 125.19448 33091 ft 545 kts 102°
2026-05-01 14:47 31.78408 125.28119 33079 ft 544 kts 101°
2026-05-01 14:48 31.76252 125.41252 33084 ft 544 kts 101°
2026-05-01 14:48 31.74103 125.54285 33081 ft 544 kts 101°
2026-05-01 14:49 31.73295 125.71864 33097 ft 542 kts 79°
2026-05-01 14:50 31.77056 125.88943 33081 ft 541 kts 73°
2026-05-01 14:51 31.79854 126.01822 33080 ft 541 kts 73°
2026-05-01 14:52 31.82657 126.14641 33080 ft 542 kts 73°
2026-05-01 14:53 31.85156 126.26136 33080 ft 542 kts 73°
2026-05-01 14:53 31.87008 126.34698 33076 ft 543 kts 73°
2026-05-01 14:54 31.88868 126.43325 33152 ft 546 kts 73°
2026-05-01 14:54 31.89801 126.47664 33476 ft 546 kts 73°
2026-05-01 14:54 31.90736 126.51985 33934 ft 543 kts 73°
2026-05-01 14:54 31.91680 126.56276 34384 ft 540 kts 72°
2026-05-01 14:55 31.92627 126.60545 34801 ft 536 kts 72°
2026-05-01 14:55 31.93561 126.64750 35101 ft 536 kts 72°
2026-05-01 14:55 31.94505 126.69009 35060 ft 537 kts 72°
2026-05-01 14:56 31.96379 126.77524 35071 ft 535 kts 72°
2026-05-01 14:56 31.98226 126.85969 35071 ft 535 kts 72°
2026-05-01 14:57 32.00076 126.94461 35068 ft 536 kts 72°
2026-05-01 14:57 32.02857 127.07269 35066 ft 537 kts 72°
2026-05-01 14:58 32.05117 127.15639 35060 ft 532 kts 62°
2026-05-01 14:58 32.08181 127.23513 35063 ft 532 kts 60°
2026-05-01 14:59 32.11262 127.31462 35060 ft 533 kts 62°
2026-05-01 14:59 32.14273 127.39463 35050 ft 533 kts 62°
2026-05-01 15:00 32.18763 127.51463 35058 ft 533 kts 62°
2026-05-01 15:01 32.21761 127.59492 35054 ft 534 kts 62°
2026-05-01 15:01 32.24735 127.67471 35053 ft 534 kts 62°
2026-05-01 15:02 32.27725 127.75511 35053 ft 534 kts 62°
2026-05-01 15:02 32.30717 127.83578 35044 ft 535 kts 61°
2026-05-01 15:03 32.33699 127.91636 35049 ft 535 kts 61°
2026-05-01 15:03 32.36662 127.99665 35051 ft 535 kts 61°
2026-05-01 15:04 32.39636 128.07741 35041 ft 536 kts 61°
2026-05-01 15:04 32.42608 128.15829 35045 ft 536 kts 61°
2026-05-01 15:05 32.45571 128.23915 35042 ft 536 kts 62°
2026-05-01 15:05 32.48537 128.32026 35041 ft 536 kts 62°
2026-05-01 15:06 32.51499 128.40148 35037 ft 536 kts 62°
2026-05-01 15:06 32.54454 128.48269 35041 ft 536 kts 62°
2026-05-01 15:07 32.57380 128.56332 35038 ft 536 kts 62°
2026-05-01 15:07 32.60321 128.64455 35035 ft 536 kts 62°
2026-05-01 15:08 32.63267 128.72610 35036 ft 536 kts 62°
2026-05-01 15:08 32.66392 128.80614 35016 ft 530 kts 54°
2026-05-01 15:09 32.70434 128.87798 35016 ft 522 kts 43°
2026-05-01 15:09 32.75173 128.94344 35024 ft 520 kts 41°
2026-05-01 15:10 32.79912 129.00812 35026 ft 520 kts 42°
2026-05-01 15:10 32.86964 129.10597 35020 ft 520 kts 42°
2026-05-01 15:11 32.93974 129.20407 35013 ft 519 kts 42°
2026-05-01 15:12 32.98661 129.26977 35011 ft 519 kts 42°
2026-05-01 15:12 33.05691 129.36847 35008 ft 520 kts 41°
2026-05-01 15:14 33.17362 129.53296 35004 ft 520 kts 41°
2026-05-01 15:14 33.24374 129.63215 35002 ft 521 kts 41°
2026-05-01 15:15 33.33847 129.76149 35006 ft 514 kts 36°
2026-05-01 15:16 33.44094 129.88043 34990 ft 514 kts 34°
2026-05-01 15:18 33.56866 130.03075 34979 ft 515 kts 35°
2026-05-01 15:19 33.67064 130.15146 34986 ft 515 kts 34°
2026-05-01 15:19 33.74697 130.24207 34982 ft 515 kts 34°
2026-05-01 15:20 33.82341 130.33305 34979 ft 514 kts 34°
2026-05-01 15:21 33.87396 130.39335 34977 ft 515 kts 34°
2026-05-01 15:21 33.92480 130.45409 34967 ft 515 kts 34°
2026-05-01 15:22 34.00098 130.54535 34946 ft 514 kts 34°
2026-05-01 15:22 34.05164 130.60636 34949 ft 515 kts 36°
2026-05-01 15:23 34.10068 130.66979 34952 ft 517 kts 37°
2026-05-01 15:23 34.14884 130.73344 34946 ft 516 kts 37°
2026-05-01 15:24 34.19769 130.79722 34939 ft 515 kts 36°
2026-05-01 15:24 34.24643 130.86077 34936 ft 516 kts 37°
2026-05-01 15:25 34.29035 130.93102 34930 ft 532 kts 48°
2026-05-01 15:25 34.32909 131.00744 34940 ft 533 kts 49°
2026-05-01 15:26 34.36746 131.08389 34940 ft 532 kts 49°
2026-05-01 15:26 34.40623 131.16012 34929 ft 532 kts 48°
2026-05-01 15:27 34.44519 131.23630 34933 ft 532 kts 48°
2026-05-01 15:28 34.50349 131.35048 34938 ft 532 kts 48°
2026-05-01 15:28 34.54216 131.42652 34923 ft 532 kts 47°
2026-05-01 15:29 34.60042 131.54145 34926 ft 532 kts 47°
2026-05-01 15:30 34.67766 131.69439 34934 ft 532 kts 47°
2026-05-01 15:31 34.79341 131.92480 34929 ft 533 kts 47°
2026-05-01 15:32 34.83432 131.99918 34926 ft 521 kts 40°
2026-05-01 15:32 34.87895 132.06787 34924 ft 519 kts 39°
2026-05-01 15:34 35.01317 132.27520 34908 ft 519 kts 39°